Location: Lewisville
(33.0462°N, 96.9942°W)
Time: 15:04:52
(UTC-05:00)

X-37B - Pass Details

Date: 26 March 2021
Orbit: 386 x 389 km, 45.0° (Epoch: 08 May)

Event Time Altitude Azimuth Distance (km) Brightness Sun altitude
Rises 20:17:04 0° 302° (WNW) 2,265 5.9 -7.7°
Reaches altitude 10° 20:19:09 10° 299° (WNW) 1,409 4.7 -8.1°
Maximum altitude 20:22:18 68° 216° (SW) 417 0.8 -8.8°
Drops below altitude 10° 20:25:27 10° 133° (SE) 1,404 2.9 -9.4°
Enters shadow 20:25:30 10° 133° (SE) 1,427 2.9 -9.4°
